This is the latest recevied weather packets stored in our database for station/object W7TTE. If no packets are shown the sender has not sent any weather packets the latest 10 day(s).
| Time | Temp. | Humidity | Pressure | Rain* | Wind** | Luminosity | Snow |
|---|---|---|---|---|---|---|---|
| 1778021217 | 26.11° C | 26% | 1012.2 hPa | 0 mm | - | 523 W/m² | - |
| 1778020915 | 26.11° C | 27% | 1012 hPa | 0 mm | - | 522 W/m² | - |
| 1778020612 | 26.11° C | 28% | 1012.4 hPa | 0 mm | - | 124 W/m² | - |
| 1778020308 | 26.11° C | 27% | 1012.3 hPa | 0 mm | - | 567 W/m² | - |
| 1778020004 | 25.56° C | 27% | 1012.3 hPa | 0 mm | - | 361 W/m² | - |
| 1778019701 | 25.56° C | 27% | 1012.3 hPa | 0 mm | - | 607 W/m² | - |
| 1778019398 | 26.67° C | 26% | 1012.5 hPa | 0 mm | - | 564 W/m² | - |
| 1778019094 | 25.56° C | 27% | 1012.3 hPa | 0 mm | - | 666 W/m² | - |
| 1778018792 | 24.44° C | 29% | 1012.7 hPa | 0 mm | - | 428 W/m² | - |
| 1778018490 | 25° C | 28% | 1012.5 hPa | 0 mm | - | 211 W/m² | - |
| 1778018187 | 25° C | 28% | 1012.9 hPa | 0 mm | - | 221 W/m² | - |
| 1778017885 | 25° C | 27% | 1012.8 hPa | 0 mm | - | 181 W/m² | - |
| 1778017583 | 25.56° C | 27% | 1012.8 hPa | 0 mm | - | 726 W/m² | - |
| 1778017280 | 25.56° C | 27% | 1012.9 hPa | 0 mm | - | 740 W/m² | - |
| 1778016977 | 25° C | 26% | 1012.7 hPa | 0 mm | - | 784 W/m² | - |
| 1778016674 | 25° C | 27% | 1012.8 hPa | 0 mm | - | 824 W/m² | - |
| 1778016370 | 25° C | 29% | 1012.8 hPa | 0 mm | - | 206 W/m² | - |
| 1778016068 | 25.56° C | 28% | 1013.1 hPa | 0 mm | - | 804 W/m² | - |
| 1778015764 | 25.56° C | 28% | 1013 hPa | 0 mm | - | 784 W/m² | - |
| 1778015462 | 25° C | 30% | 1013.1 hPa | 0 mm | - | 259 W/m² | - |
| 1778015158 | 25° C | 29% | 1013.1 hPa | 0 mm | - | 486 W/m² | - |
| 1778014855 | 24.44° C | 30% | 1013.4 hPa | 0 mm | - | 314 W/m² | - |
| 1778014553 | 24.44° C | 29% | 1013.5 hPa | 0 mm | - | 230 W/m² | - |
| 1778014250 | 25° C | 30% | 1013.6 hPa | 0 mm | - | 866 W/m² | - |
| 1778013947 | 25° C | 30% | 1013.5 hPa | 0 mm | - | 848 W/m² | - |
* Rain latest hour (hover to see other rain measurements)
** Current wind speed in m/s (hover to see current wind gust speed)